Year,Month,Day,Hour,Minute,Value (Times are PST for temperature in C)
2019,07,19,00,00,11.60
2019,07,19,00,01,11.70
2019,07,19,00,02,11.70
2019,07,19,00,03,11.70
2019,07,19,00,04,11.70
2019,07,19,00,05,11.70
2019,07,19,00,06,11.70
2019,07,19,00,07,11.70
2019,07,19,00,08,11.70
2019,07,19,00,09,11.70
2019,07,19,00,10,11.70
2019,07,19,00,11,11.60
2019,07,19,00,12,11.60
2019,07,19,00,13,11.60
2019,07,19,00,14,11.60
2019,07,19,00,15,11.60
2019,07,19,00,16,11.60
2019,07,19,00,17,11.60
2019,07,19,00,18,11.60
2019,07,19,00,19,11.60
2019,07,19,00,20,11.60
2019,07,19,00,21,11.60
2019,07,19,00,22,11.60
2019,07,19,00,23,11.60
2019,07,19,00,24,11.60
2019,07,19,00,25,11.60
2019,07,19,00,26,11.60
2019,07,19,00,27,11.60
2019,07,19,00,28,11.60
2019,07,19,00,29,11.60
2019,07,19,00,30,11.60
2019,07,19,00,31,11.60
2019,07,19,00,32,11.60
2019,07,19,00,33,11.60
2019,07,19,00,34,11.60
2019,07,19,00,35,11.60
2019,07,19,00,36,11.60
2019,07,19,00,37,11.60
2019,07,19,00,38,11.60
2019,07,19,00,39,11.60
2019,07,19,00,40,11.60
2019,07,19,00,41,11.60
2019,07,19,00,42,11.60
2019,07,19,00,43,11.60
2019,07,19,00,44,11.60
2019,07,19,00,45,11.50
2019,07,19,00,46,11.50
2019,07,19,00,47,11.40
2019,07,19,00,48,11.40
2019,07,19,00,49,11.40
2019,07,19,00,50,11.40
2019,07,19,00,51,11.40
2019,07,19,00,52,11.30
2019,07,19,00,53,11.30
2019,07,19,00,54,11.30
2019,07,19,00,55,11.30
2019,07,19,00,56,11.30
2019,07,19,00,57,11.30
2019,07,19,00,58,11.20
2019,07,19,00,59,11.20
2019,07,19,01,00,11.20
2019,07,19,01,01,11.10
2019,07,19,01,02,11.10
2019,07,19,01,03,11.10
2019,07,19,01,04,11.10
2019,07,19,01,05,11.10
2019,07,19,01,06,11.10
2019,07,19,01,07,11.10
2019,07,19,01,08,11.10
2019,07,19,01,09,11.10
2019,07,19,01,10,11.10
2019,07,19,01,11,11.10
2019,07,19,01,12,11.10
2019,07,19,01,13,11.10
2019,07,19,01,14,11.10
2019,07,19,01,15,11.20
2019,07,19,01,16,11.20
2019,07,19,01,17,11.20
2019,07,19,01,18,11.20
2019,07,19,01,19,11.20
2019,07,19,01,20,11.10
2019,07,19,01,21,11.10
2019,07,19,01,22,11.10
2019,07,19,01,23,11.10
2019,07,19,01,24,11.10
2019,07,19,01,25,11.10
2019,07,19,01,26,11.10
2019,07,19,01,27,11.10
2019,07,19,01,28,11.00
2019,07,19,01,29,11.00
2019,07,19,01,30,11.00
2019,07,19,01,31,11.00
2019,07,19,01,32,11.00
2019,07,19,01,33,11.00
2019,07,19,01,34,11.00
2019,07,19,01,35,10.90
2019,07,19,01,36,10.90
2019,07,19,01,37,10.90
2019,07,19,01,38,10.90
2019,07,19,01,39,10.90
2019,07,19,01,40,10.90
2019,07,19,01,41,10.90
2019,07,19,01,42,10.90
2019,07,19,01,43,10.90
2019,07,19,01,44,10.90
2019,07,19,01,45,10.90
2019,07,19,01,46,10.80
2019,07,19,01,47,10.80
2019,07,19,01,48,10.80
2019,07,19,01,49,10.80
2019,07,19,01,50,10.80
2019,07,19,01,51,10.80
2019,07,19,01,52,10.70
2019,07,19,01,53,10.70
2019,07,19,01,54,10.70
2019,07,19,01,55,10.70
2019,07,19,01,56,10.70
2019,07,19,01,57,10.70
2019,07,19,01,58,10.70
2019,07,19,01,59,10.80
2019,07,19,02,00,10.80
2019,07,19,02,01,10.80
2019,07,19,02,02,10.80
2019,07,19,02,03,10.90
2019,07,19,02,04,10.90
2019,07,19,02,05,10.90
2019,07,19,02,06,10.90
2019,07,19,02,07,10.90
2019,07,19,02,08,11.00
2019,07,19,02,09,11.00
2019,07,19,02,10,11.00
2019,07,19,02,11,11.00
2019,07,19,02,12,11.00
2019,07,19,02,13,10.90
2019,07,19,02,14,10.90
2019,07,19,02,15,10.90
2019,07,19,02,16,10.90
2019,07,19,02,17,10.90
2019,07,19,02,18,10.90
2019,07,19,02,19,10.90
2019,07,19,02,20,10.90
2019,07,19,02,21,10.90
2019,07,19,02,22,10.90
2019,07,19,02,23,10.90
2019,07,19,02,24,11.00
2019,07,19,02,25,11.00
2019,07,19,02,26,11.00
2019,07,19,02,27,11.00
2019,07,19,02,28,11.00
2019,07,19,02,29,11.00
2019,07,19,02,30,11.00
2019,07,19,02,31,11.00
2019,07,19,02,32,11.00
2019,07,19,02,33,10.90
2019,07,19,02,34,10.90
2019,07,19,02,35,10.90
2019,07,19,02,36,10.90
2019,07,19,02,37,10.90
2019,07,19,02,38,10.90
2019,07,19,02,39,10.90
2019,07,19,02,40,10.90
2019,07,19,02,41,10.90
2019,07,19,02,42,10.90
2019,07,19,02,43,10.90
2019,07,19,02,44,10.90
2019,07,19,02,45,10.90
2019,07,19,02,46,10.80
2019,07,19,02,47,10.80
2019,07,19,02,48,10.80
2019,07,19,02,49,10.80
2019,07,19,02,50,10.80
2019,07,19,02,51,10.80
2019,07,19,02,52,10.80
2019,07,19,02,53,10.80
2019,07,19,02,54,10.80
2019,07,19,02,55,10.80
2019,07,19,02,56,10.70
2019,07,19,02,57,10.70
2019,07,19,02,58,10.70
2019,07,19,02,59,10.70
2019,07,19,03,00,10.70
2019,07,19,03,01,10.70
2019,07,19,03,02,10.70
2019,07,19,03,03,10.70
2019,07,19,03,04,10.70
2019,07,19,03,05,10.70
2019,07,19,03,06,10.70
2019,07,19,03,07,10.70
2019,07,19,03,08,10.60
2019,07,19,03,09,10.60
2019,07,19,03,10,10.60
2019,07,19,03,11,10.60
2019,07,19,03,12,10.60
2019,07,19,03,13,10.50
2019,07,19,03,14,10.50
2019,07,19,03,15,10.40
2019,07,19,03,16,10.40
2019,07,19,03,17,10.40
2019,07,19,03,18,10.40
2019,07,19,03,19,10.40
2019,07,19,03,20,10.50
2019,07,19,03,21,10.50
2019,07,19,03,22,10.50
2019,07,19,03,23,10.50
2019,07,19,03,24,10.50
2019,07,19,03,25,10.50
2019,07,19,03,26,10.50
2019,07,19,03,27,10.50
2019,07,19,03,28,10.40
2019,07,19,03,29,10.40
2019,07,19,03,30,10.40
2019,07,19,03,31,10.40
2019,07,19,03,32,10.40
2019,07,19,03,33,10.40
2019,07,19,03,34,10.40
2019,07,19,03,35,10.40
2019,07,19,03,36,10.40
2019,07,19,03,37,10.40
2019,07,19,03,38,10.40
2019,07,19,03,39,10.40
2019,07,19,03,40,10.40
2019,07,19,03,41,10.40
2019,07,19,03,42,10.40
2019,07,19,03,43,10.40
2019,07,19,03,44,10.30
2019,07,19,03,45,10.30
2019,07,19,03,46,10.30
2019,07,19,03,47,10.30
2019,07,19,03,48,10.30
2019,07,19,03,49,10.30
2019,07,19,03,50,10.30
2019,07,19,03,51,10.30
2019,07,19,03,52,10.30
2019,07,19,03,53,10.30
2019,07,19,03,54,10.30
2019,07,19,03,55,10.30
2019,07,19,03,56,10.30
2019,07,19,03,57,10.30
2019,07,19,03,58,10.30
2019,07,19,03,59,10.40
2019,07,19,04,00,10.40
2019,07,19,04,01,10.40
2019,07,19,04,02,10.40
2019,07,19,04,03,10.40
2019,07,19,04,04,10.40
2019,07,19,04,05,10.30
2019,07,19,04,06,10.30
2019,07,19,04,07,10.40
2019,07,19,04,08,10.40
2019,07,19,04,09,10.40
2019,07,19,04,10,10.40
2019,07,19,04,11,10.40
2019,07,19,04,12,10.50
2019,07,19,04,13,10.50
2019,07,19,04,14,10.60
2019,07,19,04,15,10.60
2019,07,19,04,16,10.60
2019,07,19,04,17,10.60
2019,07,19,04,18,10.60
2019,07,19,04,19,10.60
2019,07,19,04,20,10.60
2019,07,19,04,21,10.60
2019,07,19,04,22,10.60
2019,07,19,04,23,10.50
2019,07,19,04,24,10.50
2019,07,19,04,25,10.40
2019,07,19,04,26,10.40
2019,07,19,04,27,10.30
2019,07,19,04,28,10.30
2019,07,19,04,29,10.30
2019,07,19,04,30,10.30
2019,07,19,04,31,10.30
2019,07,19,04,32,10.30
2019,07,19,04,33,10.30
2019,07,19,04,34,10.30
2019,07,19,04,35,10.30
2019,07,19,04,36,10.30
2019,07,19,04,37,10.30
2019,07,19,04,38,10.30
2019,07,19,04,39,10.30
2019,07,19,04,40,10.30
2019,07,19,04,41,10.20
2019,07,19,04,42,10.20
2019,07,19,04,43,10.20
2019,07,19,04,44,10.20
2019,07,19,04,45,10.20
2019,07,19,04,46,10.20
2019,07,19,04,47,10.20
2019,07,19,04,48,10.20
2019,07,19,04,49,10.20
2019,07,19,04,50,10.20
2019,07,19,04,51,10.30
2019,07,19,04,52,10.30
2019,07,19,04,53,10.30
2019,07,19,04,54,10.30
2019,07,19,04,55,10.30
2019,07,19,04,56,10.30
2019,07,19,04,57,10.30
2019,07,19,04,58,10.30
2019,07,19,04,59,10.30
2019,07,19,05,00,10.30
2019,07,19,05,01,10.30
2019,07,19,05,02,10.30
2019,07,19,05,03,10.30
2019,07,19,05,04,10.30
2019,07,19,05,05,10.40
2019,07,19,05,06,10.40
2019,07,19,05,07,10.40
2019,07,19,05,08,10.40
2019,07,19,05,09,10.50
2019,07,19,05,10,10.50
2019,07,19,05,11,10.60
2019,07,19,05,12,10.60
2019,07,19,05,13,10.60
2019,07,19,05,14,10.60
2019,07,19,05,15,10.70
2019,07,19,05,16,10.70
2019,07,19,05,17,10.70
2019,07,19,05,18,10.70
2019,07,19,05,19,10.80
2019,07,19,05,20,10.80
2019,07,19,05,21,10.80
2019,07,19,05,22,10.80
2019,07,19,05,23,10.80
2019,07,19,05,24,10.80
2019,07,19,05,25,10.80
2019,07,19,05,26,10.80
2019,07,19,05,27,10.80
2019,07,19,05,28,10.80
2019,07,19,05,29,10.80
2019,07,19,05,30,10.80
2019,07,19,05,31,10.80
2019,07,19,05,32,10.70
2019,07,19,05,33,10.70
2019,07,19,05,34,10.70
2019,07,19,05,35,10.70
2019,07,19,05,36,10.60
2019,07,19,05,37,10.60
2019,07,19,05,38,10.60
2019,07,19,05,39,10.50
2019,07,19,05,40,10.50
2019,07,19,05,41,10.50
2019,07,19,05,42,10.50
2019,07,19,05,43,10.40
2019,07,19,05,44,10.40
2019,07,19,05,45,10.40
2019,07,19,05,46,10.40
2019,07,19,05,47,10.40
2019,07,19,05,48,10.40
2019,07,19,05,49,10.40
2019,07,19,05,50,10.40
2019,07,19,05,51,10.40
2019,07,19,05,52,10.40
2019,07,19,05,53,10.40
2019,07,19,05,54,10.40
2019,07,19,05,55,10.40
2019,07,19,05,56,10.40
2019,07,19,05,57,10.40
2019,07,19,05,58,10.40
2019,07,19,05,59,10.40
2019,07,19,06,00,10.40
2019,07,19,06,01,10.40
2019,07,19,06,02,10.40
2019,07,19,06,03,10.40
2019,07,19,06,04,10.40
2019,07,19,06,05,10.40
2019,07,19,06,06,10.40
2019,07,19,06,07,10.50
2019,07,19,06,08,10.50
2019,07,19,06,09,10.50
2019,07,19,06,10,10.50
2019,07,19,06,11,10.50
2019,07,19,06,12,10.50
2019,07,19,06,13,10.50
2019,07,19,06,14,10.50
2019,07,19,06,15,10.60
2019,07,19,06,16,10.60
2019,07,19,06,17,10.60
2019,07,19,06,18,10.60
2019,07,19,06,19,10.60
2019,07,19,06,20,10.50
2019,07,19,06,21,10.60
2019,07,19,06,22,10.60
2019,07,19,06,23,10.60
2019,07,19,06,24,10.60
2019,07,19,06,25,10.60
2019,07,19,06,26,10.60
2019,07,19,06,27,10.70
2019,07,19,06,28,10.70
2019,07,19,06,29,10.70
2019,07,19,06,30,10.70
2019,07,19,06,31,10.70
2019,07,19,06,32,10.70
2019,07,19,06,33,10.70
2019,07,19,06,34,10.70
2019,07,19,06,35,10.70
2019,07,19,06,36,10.80
2019,07,19,06,37,10.80
2019,07,19,06,38,10.80
2019,07,19,06,39,10.80
2019,07,19,06,40,10.80
2019,07,19,06,41,10.80
2019,07,19,06,42,10.80
2019,07,19,06,43,10.80
2019,07,19,06,44,10.70
2019,07,19,06,45,10.70
2019,07,19,06,46,10.70
2019,07,19,06,47,10.70
2019,07,19,06,48,10.70
2019,07,19,06,49,10.70
2019,07,19,06,50,10.70
2019,07,19,06,51,10.70
2019,07,19,06,52,10.60
2019,07,19,06,53,10.60
2019,07,19,06,54,10.60
2019,07,19,06,55,10.60
2019,07,19,06,56,10.60
2019,07,19,06,57,10.60
2019,07,19,06,58,10.60
2019,07,19,06,59,10.60
2019,07,19,07,00,10.60
2019,07,19,07,01,10.60
2019,07,19,07,02,10.70
2019,07,19,07,03,10.70
2019,07,19,07,04,10.70
2019,07,19,07,05,10.70
2019,07,19,07,06,10.70
2019,07,19,07,07,10.70
2019,07,19,07,08,10.70
2019,07,19,07,09,10.70
2019,07,19,07,10,10.70
2019,07,19,07,11,10.70
2019,07,19,07,12,10.80
2019,07,19,07,13,10.80
2019,07,19,07,14,10.80
2019,07,19,07,15,10.80
2019,07,19,07,16,10.80
2019,07,19,07,17,10.90
2019,07,19,07,18,10.90
2019,07,19,07,19,10.90
2019,07,19,07,20,10.90
2019,07,19,07,21,10.90
2019,07,19,07,22,11.00
2019,07,19,07,23,11.00
2019,07,19,07,24,11.00
2019,07,19,07,25,11.00
2019,07,19,07,26,11.10
2019,07,19,07,27,11.10
2019,07,19,07,28,11.10
2019,07,19,07,29,11.10
2019,07,19,07,30,11.10
2019,07,19,07,31,11.10
2019,07,19,07,32,11.20
2019,07,19,07,33,11.20
2019,07,19,07,34,11.20
2019,07,19,07,35,11.20
2019,07,19,07,36,11.30
2019,07,19,07,37,11.30
2019,07,19,07,38,11.30
2019,07,19,07,39,11.30
2019,07,19,07,40,11.30
2019,07,19,07,41,11.30
2019,07,19,07,42,11.30
2019,07,19,07,43,11.40
2019,07,19,07,44,11.40
2019,07,19,07,45,11.40
2019,07,19,07,46,11.40
2019,07,19,07,47,11.40
2019,07,19,07,48,11.40
2019,07,19,07,49,11.40
2019,07,19,07,50,11.40
2019,07,19,07,51,11.40
2019,07,19,07,52,11.40
2019,07,19,07,53,11.50
2019,07,19,07,54,11.50
2019,07,19,07,55,11.60
2019,07,19,07,56,11.60
2019,07,19,07,57,11.60
2019,07,19,07,58,11.70
2019,07,19,07,59,11.70
2019,07,19,08,00,11.70
2019,07,19,08,01,11.70
2019,07,19,08,02,11.80
2019,07,19,08,03,11.80
2019,07,19,08,04,11.80
2019,07,19,08,05,11.80
2019,07,19,08,06,11.90
2019,07,19,08,07,11.90
2019,07,19,08,08,12.00
2019,07,19,08,09,12.00
2019,07,19,08,10,12.10
2019,07,19,08,11,12.10
2019,07,19,08,12,12.10
2019,07,19,08,13,12.10
2019,07,19,08,14,12.20
2019,07,19,08,15,12.20
2019,07,19,08,16,12.20
2019,07,19,08,17,12.20
2019,07,19,08,18,12.30
2019,07,19,08,19,12.30
2019,07,19,08,20,12.30
2019,07,19,08,21,12.30
2019,07,19,08,22,12.30
2019,07,19,08,23,12.30
2019,07,19,08,24,12.30
2019,07,19,08,25,12.30
2019,07,19,08,26,12.30
2019,07,19,08,27,12.30
2019,07,19,08,28,12.30
2019,07,19,08,29,12.20
2019,07,19,08,30,12.20
2019,07,19,08,31,12.20
2019,07,19,08,32,12.20
2019,07,19,08,33,12.20
2019,07,19,08,34,12.30
2019,07,19,08,35,12.40
2019,07,19,08,36,12.40
2019,07,19,08,37,12.50
2019,07,19,08,38,12.60
2019,07,19,08,39,12.60
2019,07,19,08,40,12.60
2019,07,19,08,41,12.70
2019,07,19,08,42,12.70
2019,07,19,08,43,12.70
2019,07,19,08,44,12.80
2019,07,19,08,45,12.90
2019,07,19,08,46,12.90
2019,07,19,08,47,13.00
2019,07,19,08,48,13.00
2019,07,19,08,49,13.00
2019,07,19,08,50,13.00
2019,07,19,08,51,13.10
2019,07,19,08,52,13.10
2019,07,19,08,53,13.10
2019,07,19,08,54,13.20
2019,07,19,08,55,13.20
2019,07,19,08,56,13.20
2019,07,19,08,57,13.20
2019,07,19,08,58,13.20
2019,07,19,08,59,13.20
2019,07,19,09,00,13.30
2019,07,19,09,01,13.30
2019,07,19,09,02,13.30
2019,07,19,09,03,13.30
2019,07,19,09,04,13.40
2019,07,19,09,05,13.40
2019,07,19,09,06,13.50
2019,07,19,09,07,13.60
2019,07,19,09,08,13.70
2019,07,19,09,09,13.70
2019,07,19,09,10,13.70
2019,07,19,09,11,13.80
2019,07,19,09,12,13.80
2019,07,19,09,13,13.80
2019,07,19,09,14,13.80
2019,07,19,09,15,13.90
2019,07,19,09,16,13.90
2019,07,19,09,17,14.00
2019,07,19,09,18,14.00
2019,07,19,09,19,14.10
2019,07,19,09,20,14.10
2019,07,19,09,21,14.20
2019,07,19,09,22,14.20
2019,07,19,09,23,14.20
2019,07,19,09,24,14.20
2019,07,19,09,25,14.30
2019,07,19,09,26,14.30
2019,07,19,09,27,14.40
2019,07,19,09,28,14.40
2019,07,19,09,29,14.40
2019,07,19,09,30,14.40
2019,07,19,09,31,14.40
2019,07,19,09,32,14.30
2019,07,19,09,33,14.30
2019,07,19,09,34,14.30
2019,07,19,09,35,14.30
2019,07,19,09,36,14.40
2019,07,19,09,37,14.50
2019,07,19,09,38,14.50
2019,07,19,09,39,14.60
2019,07,19,09,40,14.60
2019,07,19,09,41,14.70
2019,07,19,09,42,14.80
2019,07,19,09,43,14.80
2019,07,19,09,44,14.80
2019,07,19,09,45,14.80
2019,07,19,09,46,14.80
2019,07,19,09,47,14.80
2019,07,19,09,48,14.80
2019,07,19,09,49,14.80
2019,07,19,09,50,14.80
2019,07,19,09,51,14.80
2019,07,19,09,52,14.90
2019,07,19,09,53,15.00
2019,07,19,09,54,15.10
2019,07,19,09,55,15.10
2019,07,19,09,56,15.20
2019,07,19,09,57,15.20
2019,07,19,09,58,15.20
2019,07,19,09,59,15.20
2019,07,19,10,00,15.20
2019,07,19,10,01,15.20
2019,07,19,10,02,15.30
2019,07,19,10,03,15.30
2019,07,19,10,04,15.30
2019,07,19,10,05,15.40
2019,07,19,10,06,15.40
2019,07,19,10,07,15.40
2019,07,19,10,08,15.40
2019,07,19,10,09,15.50
2019,07,19,10,10,15.50
2019,07,19,10,11,15.60
2019,07,19,10,12,15.60
2019,07,19,10,13,15.60
2019,07,19,10,14,15.50
2019,07,19,10,15,15.40
2019,07,19,10,16,15.40
2019,07,19,10,17,15.40
2019,07,19,10,18,15.40
2019,07,19,10,19,15.50
2019,07,19,10,20,15.50
2019,07,19,10,21,15.50
2019,07,19,10,22,15.50
2019,07,19,10,23,15.60
2019,07,19,10,24,15.60
2019,07,19,10,25,15.60
2019,07,19,10,26,15.60
2019,07,19,10,27,15.60
2019,07,19,10,28,15.60
2019,07,19,10,29,15.60
2019,07,19,10,30,15.60
2019,07,19,10,31,15.60
2019,07,19,10,32,15.70
2019,07,19,10,33,15.70
2019,07,19,10,34,15.70
2019,07,19,10,35,15.60
2019,07,19,10,36,15.60
2019,07,19,10,37,15.50
2019,07,19,10,38,15.40
2019,07,19,10,39,15.30
2019,07,19,10,40,15.30
2019,07,19,10,41,15.40
2019,07,19,10,42,15.50
2019,07,19,10,43,15.60
2019,07,19,10,44,15.60
2019,07,19,10,45,15.60
2019,07,19,10,46,15.60
2019,07,19,10,47,15.70
2019,07,19,10,48,15.70
2019,07,19,10,49,15.70
2019,07,19,10,50,15.70
2019,07,19,10,51,15.70
2019,07,19,10,52,15.70
2019,07,19,10,53,15.80
2019,07,19,10,54,15.90
2019,07,19,10,55,15.90
2019,07,19,10,56,15.90
2019,07,19,10,57,15.90
2019,07,19,10,58,15.90
2019,07,19,10,59,15.90
2019,07,19,11,00,15.90
2019,07,19,11,01,15.90
2019,07,19,11,02,16.00
2019,07,19,11,03,16.00
2019,07,19,11,04,16.10
2019,07,19,11,05,16.00
2019,07,19,11,06,15.90
2019,07,19,11,07,15.90
2019,07,19,11,08,15.90
2019,07,19,11,09,15.90
2019,07,19,11,10,15.90
2019,07,19,11,11,16.00
2019,07,19,11,12,16.00
2019,07,19,11,13,16.10
2019,07,19,11,14,16.20
2019,07,19,11,15,16.20
2019,07,19,11,16,16.30
2019,07,19,11,17,16.40
2019,07,19,11,18,16.50
2019,07,19,11,19,16.50
2019,07,19,11,20,16.50
2019,07,19,11,21,16.40
2019,07,19,11,22,16.40
2019,07,19,11,23,16.40
2019,07,19,11,24,16.30
2019,07,19,11,25,16.30
2019,07,19,11,26,16.30
2019,07,19,11,27,16.30
2019,07,19,11,28,16.40
2019,07,19,11,29,16.40
2019,07,19,11,30,16.50
2019,07,19,11,31,16.60
2019,07,19,11,32,16.70
2019,07,19,11,33,16.80
2019,07,19,11,34,16.80
2019,07,19,11,35,16.70
2019,07,19,11,36,16.70
2019,07,19,11,37,16.80
2019,07,19,11,38,16.80
2019,07,19,11,39,16.80
2019,07,19,11,40,16.80
2019,07,19,11,41,16.90
2019,07,19,11,42,16.90
2019,07,19,11,43,16.90
2019,07,19,11,44,16.80
2019,07,19,11,45,16.70
2019,07,19,11,46,16.70
2019,07,19,11,47,16.70
2019,07,19,11,48,16.70
2019,07,19,11,49,16.70
2019,07,19,11,50,16.80
2019,07,19,11,51,16.80
2019,07,19,11,52,16.80
2019,07,19,11,53,16.80
2019,07,19,11,54,16.80
2019,07,19,11,55,16.70
2019,07,19,11,56,16.70
2019,07,19,11,57,16.70
2019,07,19,11,58,16.70
2019,07,19,11,59,16.80
2019,07,19,12,00,16.80
2019,07,19,12,01,16.80
2019,07,19,12,02,16.80
2019,07,19,12,03,16.80
2019,07,19,12,04,16.90
2019,07,19,12,05,16.90
2019,07,19,12,06,16.90
2019,07,19,12,07,16.90
2019,07,19,12,08,16.90
2019,07,19,12,09,16.90
2019,07,19,12,10,16.90
2019,07,19,12,11,16.90
2019,07,19,12,12,16.80
2019,07,19,12,13,16.80
2019,07,19,12,14,16.80
2019,07,19,12,15,16.90
2019,07,19,12,16,16.90
2019,07,19,12,17,17.00
2019,07,19,12,18,17.00
2019,07,19,12,19,17.00
2019,07,19,12,20,16.90
2019,07,19,12,21,16.90
2019,07,19,12,22,16.90
2019,07,19,12,23,16.90
2019,07,19,12,24,17.00
2019,07,19,12,25,17.10
2019,07,19,12,26,17.20
2019,07,19,12,27,17.30
2019,07,19,12,28,17.30
2019,07,19,12,29,17.30
2019,07,19,12,30,17.30
2019,07,19,12,31,17.20
2019,07,19,12,32,17.20
2019,07,19,12,33,17.30
2019,07,19,12,34,17.30
2019,07,19,12,35,17.30
2019,07,19,12,36,17.30
2019,07,19,12,37,17.30
2019,07,19,12,38,17.40
2019,07,19,12,39,17.40
2019,07,19,12,40,17.40
2019,07,19,12,41,17.40
2019,07,19,12,42,17.40
2019,07,19,12,43,17.40
2019,07,19,12,44,17.40
2019,07,19,12,45,17.40
2019,07,19,12,46,17.40
2019,07,19,12,47,17.50
2019,07,19,12,48,17.50
2019,07,19,12,49,17.60
2019,07,19,12,50,17.60
2019,07,19,12,51,17.60
2019,07,19,12,52,17.70
2019,07,19,12,53,17.70
2019,07,19,12,54,17.70
2019,07,19,12,55,17.70
2019,07,19,12,56,17.80
2019,07,19,12,57,17.80
2019,07,19,12,58,17.80
2019,07,19,12,59,17.80
2019,07,19,13,00,17.80
2019,07,19,13,01,17.90
2019,07,19,13,02,18.00
2019,07,19,13,03,18.20
2019,07,19,13,04,18.30
2019,07,19,13,05,18.30
2019,07,19,13,06,18.40
2019,07,19,13,07,18.30
2019,07,19,13,08,18.30
2019,07,19,13,09,18.20
2019,07,19,13,10,18.10
2019,07,19,13,11,18.10
2019,07,19,13,12,18.10
2019,07,19,13,13,18.10
2019,07,19,13,14,18.10
2019,07,19,13,15,18.10
2019,07,19,13,16,18.10
2019,07,19,13,17,18.20
2019,07,19,13,18,18.20
2019,07,19,13,19,18.20
2019,07,19,13,20,18.20
2019,07,19,13,21,18.20
2019,07,19,13,22,18.10
2019,07,19,13,23,18.00
2019,07,19,13,24,17.90
2019,07,19,13,25,17.90
2019,07,19,13,26,17.80
2019,07,19,13,27,17.80
2019,07,19,13,28,17.80
2019,07,19,13,29,17.80
2019,07,19,13,30,17.90
2019,07,19,13,31,17.90
2019,07,19,13,32,18.00
2019,07,19,13,33,18.00
2019,07,19,13,34,18.10
2019,07,19,13,35,18.10
2019,07,19,13,36,18.10
2019,07,19,13,37,18.20
2019,07,19,13,38,18.10
2019,07,19,13,39,18.10
2019,07,19,13,40,18.10
2019,07,19,13,41,18.10
2019,07,19,13,42,18.10
2019,07,19,13,43,18.10
2019,07,19,13,44,18.20
2019,07,19,13,45,18.20
2019,07,19,13,46,18.30
2019,07,19,13,47,18.40
2019,07,19,13,48,18.50
2019,07,19,13,49,18.50
2019,07,19,13,50,18.50
2019,07,19,13,51,18.50
2019,07,19,13,52,18.60
2019,07,19,13,53,18.60
2019,07,19,13,54,18.60
2019,07,19,13,55,18.70
2019,07,19,13,56,18.80
2019,07,19,13,57,18.80
2019,07,19,13,58,18.80
2019,07,19,13,59,18.80
2019,07,19,14,00,18.80
2019,07,19,14,01,18.80
2019,07,19,14,02,18.80
2019,07,19,14,03,18.90
2019,07,19,14,04,19.00
2019,07,19,14,05,19.00
2019,07,19,14,06,19.00
2019,07,19,14,07,19.00
2019,07,19,14,08,19.10
2019,07,19,14,09,19.10
2019,07,19,14,10,19.20
2019,07,19,14,11,19.30
2019,07,19,14,12,19.30
2019,07,19,14,13,19.30
2019,07,19,14,14,19.30
2019,07,19,14,15,19.30
2019,07,19,14,16,19.20
2019,07,19,14,17,19.20
2019,07,19,14,18,19.20
2019,07,19,14,19,19.20
2019,07,19,14,20,19.10
2019,07,19,14,21,19.10
2019,07,19,14,22,19.10
2019,07,19,14,23,19.10
2019,07,19,14,24,19.00
2019,07,19,14,25,19.00
2019,07,19,14,26,18.90
2019,07,19,14,27,18.90
2019,07,19,14,28,18.80
2019,07,19,14,29,18.70
2019,07,19,14,30,18.70
2019,07,19,14,31,18.70
2019,07,19,14,32,18.70
2019,07,19,14,33,18.60
2019,07,19,14,34,18.50
2019,07,19,14,35,18.40
2019,07,19,14,36,18.30
2019,07,19,14,37,18.20
2019,07,19,14,38,18.00
2019,07,19,14,39,18.00
2019,07,19,14,40,18.00
2019,07,19,14,41,18.10
2019,07,19,14,42,18.10
2019,07,19,14,43,18.10
2019,07,19,14,44,18.10
2019,07,19,14,45,18.10
2019,07,19,14,46,18.10
2019,07,19,14,47,18.10
2019,07,19,14,48,18.20
2019,07,19,14,49,18.30
2019,07,19,14,50,18.30
2019,07,19,14,51,18.40
2019,07,19,14,52,18.40
2019,07,19,14,53,18.50
2019,07,19,14,54,18.50
2019,07,19,14,55,18.60
2019,07,19,14,56,18.70
2019,07,19,14,57,18.70
2019,07,19,14,58,18.70
2019,07,19,14,59,18.80
2019,07,19,15,00,18.80
2019,07,19,15,01,18.80
2019,07,19,15,02,18.80
2019,07,19,15,03,18.80
2019,07,19,15,04,18.80
2019,07,19,15,05,18.90
2019,07,19,15,06,18.90
2019,07,19,15,07,18.90
2019,07,19,15,08,18.90
2019,07,19,15,09,18.90
2019,07,19,15,10,18.80
2019,07,19,15,11,18.80
2019,07,19,15,12,18.80
2019,07,19,15,13,18.80
2019,07,19,15,14,18.80
2019,07,19,15,15,18.80
2019,07,19,15,16,18.80
2019,07,19,15,17,18.90
2019,07,19,15,18,19.00
2019,07,19,15,19,19.00
2019,07,19,15,20,19.00
2019,07,19,15,21,19.10
2019,07,19,15,22,19.10
2019,07,19,15,23,19.20
2019,07,19,15,24,19.20
2019,07,19,15,25,19.20
2019,07,19,15,26,19.20
2019,07,19,15,27,19.20
2019,07,19,15,28,19.20
2019,07,19,15,29,19.20
2019,07,19,15,30,19.20
2019,07,19,15,31,19.20
2019,07,19,15,32,19.20
2019,07,19,15,33,19.20
2019,07,19,15,34,19.10
2019,07,19,15,35,19.10
2019,07,19,15,36,19.20
2019,07,19,15,37,19.20
2019,07,19,15,38,19.20
2019,07,19,15,39,19.20
2019,07,19,15,40,19.30
2019,07,19,15,41,19.30
2019,07,19,15,42,19.40
2019,07,19,15,43,19.50
2019,07,19,15,44,19.60
2019,07,19,15,45,19.70
2019,07,19,15,46,19.80
2019,07,19,15,47,19.80
2019,07,19,15,48,19.90
2019,07,19,15,49,19.90
2019,07,19,15,50,19.90
2019,07,19,15,51,19.80
2019,07,19,15,52,19.80
2019,07,19,15,53,19.70
2019,07,19,15,54,19.70
2019,07,19,15,55,19.70
2019,07,19,15,56,19.70
2019,07,19,15,57,19.70
2019,07,19,15,58,19.70
2019,07,19,15,59,19.70
2019,07,19,16,00,19.80
2019,07,19,16,01,19.80
2019,07,19,16,02,19.80
2019,07,19,16,03,19.80
2019,07,19,16,04,19.80
2019,07,19,16,05,19.90
2019,07,19,16,06,19.80
2019,07,19,16,07,19.80
2019,07,19,16,08,19.90
2019,07,19,16,09,19.90
2019,07,19,16,10,19.90
2019,07,19,16,11,19.90
2019,07,19,16,12,19.90
2019,07,19,16,13,19.90
2019,07,19,16,14,19.90
2019,07,19,16,15,19.80
2019,07,19,16,16,19.80
2019,07,19,16,17,19.80
2019,07,19,16,18,19.80
2019,07,19,16,19,19.80
2019,07,19,16,20,19.80
2019,07,19,16,21,19.90
2019,07,19,16,22,19.90
2019,07,19,16,23,19.90
2019,07,19,16,24,19.90
2019,07,19,16,25,19.90
2019,07,19,16,26,20.00
2019,07,19,16,27,20.00
2019,07,19,16,28,20.00
2019,07,19,16,29,20.10
2019,07,19,16,30,20.10
2019,07,19,16,31,20.20
2019,07,19,16,32,20.20
2019,07,19,16,33,20.20
2019,07,19,16,34,20.10
2019,07,19,16,35,20.10
2019,07,19,16,36,20.00
2019,07,19,16,37,20.00
2019,07,19,16,38,20.10
2019,07,19,16,39,20.10
2019,07,19,16,40,20.10
2019,07,19,16,41,20.10
2019,07,19,16,42,20.10
2019,07,19,16,43,20.10
2019,07,19,16,44,20.10
2019,07,19,16,45,20.10
2019,07,19,16,46,20.10
2019,07,19,16,47,20.10
2019,07,19,16,48,20.20
2019,07,19,16,49,20.30
2019,07,19,16,50,20.30
2019,07,19,16,51,20.30
2019,07,19,16,52,20.30
2019,07,19,16,53,20.30
2019,07,19,16,54,20.40
2019,07,19,16,55,20.40
2019,07,19,16,56,20.40
2019,07,19,16,57,20.50
2019,07,19,16,58,20.50
2019,07,19,16,59,20.60
2019,07,19,17,00,20.60
2019,07,19,17,01,20.60
2019,07,19,17,02,20.70
2019,07,19,17,03,20.70
2019,07,19,17,04,20.70
2019,07,19,17,05,20.70
2019,07,19,17,06,20.60
2019,07,19,17,07,20.60
2019,07,19,17,08,20.60
2019,07,19,17,09,20.60
2019,07,19,17,10,20.50
2019,07,19,17,11,20.50
2019,07,19,17,12,20.40
2019,07,19,17,13,20.40
2019,07,19,17,14,20.40
2019,07,19,17,15,20.40
2019,07,19,17,16,20.40
2019,07,19,17,17,20.30
2019,07,19,17,18,20.30
2019,07,19,17,19,20.30